Location: Navajo
(48.7922°N, 105.0603°W)
Time: 17:40:52
(UTC+00:00)

KKS-1 - Pass Details

Date: 30 June 2022
Orbit: 635 x 648 km, 98.2° (Epoch: 09 August)

Event Time Altitude Azimuth Distance (km) Brightness Sun altitude
Rises 06:39:57 0° 360° (N) 2,979 ? -17.8°
Reaches altitude 10° 06:42:54 10° 339° (NNW) 2,062 ? -17.9°
Maximum altitude 06:45:37 16° 302° (WNW) 1,688 ? -17.9°
Drops below altitude 10° 06:48:19 10° 265° (W) 2,050 ? -18.0°
Enters shadow 06:50:43 - 246° (WSW) 2,771 ? -18.0°
